Regional Weather Roundup
Issued by NWS

Home | Current Version | Previous Version | Text Only | Print | Product List | Glossary Off
Versions: 1 2 3 4 5 6 7 8 9 10 11 12 13 14 15 16 17 18 19 20 21 22 23 24 25 26 27 28 29 30 31 32 33 34 35 36 37 38 39 40 41 42 43 44 45 46 47 48 49 50

730
ASUS43 KDTX 301110
RWRMI
MICHIGAN HOURLY REGIONAL WEATHER ROUNDUP
NATIONAL WEATHER SERVICE DETROIT/PONTIAC MI
700 AM EDT SAT JUL 30 2016

NOTE: "FAIR" INDICATES FEW OR NO CLOUDS BELOW 12,000 FEET WITH NO
SIGNIFICANT WEATHER AND/OR OBSTRUCTION TO VISIBILITY.

MIZ047>049-052>055-059>063-066>070-074>076-081>083-301200-
SOUTHEAST LOWER MICHIGAN

CITY           SKY/WX    TMP DP  RH WIND       PRES   REMARKS
ADRIAN         CLOUDY    65  62  90 N5        29.96R
ALMA           LGT RAIN  63  62  97 W6        30.02S
ANN ARBOR      CLOUDY    68  63  84 N6        29.94F
BAD AXE        HVY RAIN  64  63  94 E7        30.03R
CARO           HVY RAIN  64  63  97 NE3       30.01R
DETROIT CITY   CLOUDY    70  65  84 NE8       29.96R
DETROIT        CLOUDY    68  63  84 NE7       29.95R
FLINT          TSTM      69  61  75 NE6       29.99R
GROSSE ILE     CLOUDY    71  67  87 N6        29.93S
HILLSDALE      CLOUDY    64  60  89 CALM      29.96S
HOWELL         CLOUDY    64  60  87 N6        29.98S

CITY           SKY/WX    TMP DP  RH WIND       PRES   REMARKS
JACKSON        CLOUDY    64  61  90 N8        29.97S
LAMBERTVILLE   CLOUDY    67  63  86 N5        29.94S
LANSING        LGT RAIN  63  60  90 VRB3      29.99S
LAPEER         LGT RAIN  66  61  84 NE3       30.00R
MASON          CLOUDY    63  59  86 N8G16     29.98S
MONROE         CLOUDY    67  65  93 N6        29.93S
MT. CLEMENS    MOCLDY    70  63  78 NE8       29.95R
PONTIAC        MOCLDY    67  62  84 NE8       29.97R
PORT HOPE        N/A     68  64  87 E16       30.02R
PORT HURON     CLOUDY    66  59  77 NE7       29.99R
TRI CITIES     CLOUDY    69  61  75 E3        30.03R
MIDLAND        CLOUDY    65  58  79 CALM      30.02R
TROY           CLOUDY    70  62  75 NE8       29.99R
SAGINAW HB     LGT RAIN  64  61  88 NW3       30.01R
$$
MIZ043>046-050>051-056>058-064>065-071>073-077>080-301200-
SOUTHWEST LOWER MICHIGAN

CITY           SKY/WX    TMP DP  RH WIND       PRES   REMARKS
BATTLE CREEK   CLOUDY    62  60  93 NE9       29.97S
BENTON HARBOR  CLOUDY    66  59  78 NE6       29.96R
BIG RAPIDS     CLEAR     58  56  96 CALM      30.03R
COLDWATER      CLOUDY    64  62  93 NE9       29.96S
FREMONT        MOCLDY    63  60  90 E7        30.01S
HOLLAND        LGT RAIN  63  60  90 E5        29.99S
GRAND RAPIDS   MOCLDY    62  60  93 E8        29.99S
IONIA          MOCLDY    61  59  93 NE9       29.99S
KALAMAZOO      TSTM      64  59  83 NE5       29.98R VSB 1
LUDINGTON      CLOUDY    61  56  85 E3        30.02R
MARSHALL       CLOUDY    65  60  83 CALM      29.97R
MOUNT PLEASANT CLOUDY    62  57  86 CALM      30.02R
MUSKEGON       LGT RAIN  63  61  93 NE9       29.98F
SOUTH HAVEN    CLOUDY    64  60  86 NE7       29.97R
$$
MIZ016>042-301200-
NORTHERN LOWER MICHIGAN

CITY           SKY/WX    TMP DP  RH WIND       PRES   REMARKS
ALPENA         CLEAR     55  50  83 CALM      30.08S
BEAVER ISLAND  CLEAR     53  53 100 CALM      30.08S
BELLAIRE       CLEAR     49  48  96 CALM      30.08R
CADILLAC       CLOUDY    60  54  81 NE6       30.05S
CHARLEVOIX     CLEAR     60  54  81 E5        30.10R
FRANKFORT      CLEAR     60  52  74 CALM      30.05R
GAYLORD        CLEAR     58  50  75 NE7       30.09R
GRAYLING       FOG       45  43  95 CALM      30.08S VSB<1/4
HARBOR SPRINGS PTCLDY    54  52  95 E3        30.08S
HOUGHTON LAKE  CLEAR     54  51  90 NE9       30.07R
MANISTEE       CLOUDY    61  54  77 E8        30.03R
OSCODA         PTCLDY    67  59  75 NE14      30.05R
PELLSTON       CLEAR     48  46  93 CALM      30.09S
ROGERS CITY    CLEAR     52  50  91 CALM      30.09S
TRAVERSE CITY  PTCLDY    54  51  90 CALM      30.05R
$$
MIZ007>008-015-301200-
EASTERN UPPER MICHIGAN

CITY           SKY/WX    TMP DP  RH WIND       PRES   REMARKS
KINROSS        CLEAR     56  53  90 CALM      30.10R
MACKINAC ISLAN CLEAR     58  58 100 NE5       30.08S
NEWBERRY       CLEAR     50  48  93 CALM      30.10R
S. S. MARIE    CLEAR     57  55  93 NE3       30.09S
MUNISING         N/A     51  49  92 S5        30.09R
$$
MIZ004>006-011>014-085-301200-
CENTRAL UPPER MICHIGAN

CITY           SKY/WX    TMP DP  RH WIND       PRES   REMARKS
MANISTIQUE     PTCLDY    52  51  97 CALM      30.08S
ESCANABA       PTCLDY    48  48 100 CALM      30.07R
MENOMINEE      CLEAR    N/A N/A N/A NW3       30.07
SAWYER-GWINN   CLEAR     50  48  93 CALM      30.10S
$$
MIZ001>003-009>011-084-301200-
WESTERN UPPER MICHIGAN

CITY           SKY/WX    TMP DP  RH WIND       PRES   REMARKS
IRON MOUNTAIN  PTCLDY    53  50  89 NW5       30.09R
HOUGHTON       MOCLDY    59  56  89 E6        30.09R
IRONWOOD       MOCLDY    61  57  88 S6        30.06S
$$

ABBREVIATIONS USED IN REMARKS
   TC - TEMPERATURE IN CELSIUS
  WCI - WIND CHILL INDEX
   HX - HEAT INDEX
  VSB - VISIBILITY





USA.gov is the U.S. government's official web portal to all federal, state and local government web resources and services.